Time,TemperatureF,DewpointF,PressureIn,WindDirection,WindDirectionDegrees,WindSpeedMPH,WindSpeedGustMPH,Humidity,HourlyPrecipIn,Conditions,Clouds,dailyrainin,SoftwareType,DateUTC
2013-01-23 00:04:00,14.7,9.1,30.27,East,86,0.0,0.0,78,0.00,,SKC,0.00,VWS V13.01,2013-01-23 06:04:00,
2013-01-23 00:09:00,14.7,9.1,30.27,East,86,0.0,0.0,78,0.00,,SKC,0.00,VWS V13.01,2013-01-23 06:09:00,
2013-01-23 00:14:00,14.7,9.1,30.26,East,86,0.0,0.0,78,0.00,,SKC,0.00,VWS V13.01,2013-01-23 06:14:00,
2013-01-23 00:19:00,14.7,9.1,30.26,East,86,0.0,0.0,78,0.00,,SKC,0.00,VWS V13.01,2013-01-23 06:19:00,
2013-01-23 00:25:00,14.7,9.1,30.25,East,86,0.0,0.0,78,0.00,,SKC,0.00,VWS V13.01,2013-01-23 06:25:00,
2013-01-23 00:30:00,14.6,9.0,30.26,East,86,0.0,0.0,78,0.00,,SKC,0.00,VWS V13.01,2013-01-23 06:30:00,
2013-01-23 00:35:00,14.6,9.0,30.26,East,86,0.0,0.0,78,0.00,,SKC,0.00,VWS V13.01,2013-01-23 06:35:00,
2013-01-23 00:40:00,14.6,9.0,30.26,East,86,0.0,0.0,78,0.00,,SKC,0.00,VWS V13.01,2013-01-23 06:40:00,
2013-01-23 00:45:00,14.6,9.0,30.26,East,86,0.0,0.0,78,0.00,,SKC,0.00,VWS V13.01,2013-01-23 06:45:00,
2013-01-23 00:50:00,14.6,9.0,30.25,East,86,0.0,0.0,78,0.00,,SKC,0.00,VWS V13.01,2013-01-23 06:50:00,
2013-01-23 00:55:00,14.6,9.0,30.25,East,86,0.0,0.0,78,0.00,,SKC,0.00,VWS V13.01,2013-01-23 06:55:00,
2013-01-23 01:00:00,14.5,8.9,30.25,East,86,0.0,0.0,78,0.00,,SKC,0.00,VWS V13.01,2013-01-23 07:00:00,
2013-01-23 01:05:00,14.5,8.9,30.25,East,86,0.0,0.0,78,0.00,,SKC,0.00,VWS V13.01,2013-01-23 07:05:00,
2013-01-23 01:10:00,14.4,8.8,30.25,East,86,0.0,0.0,78,0.00,,SKC,0.00,VWS V13.01,2013-01-23 07:10:00,
2013-01-23 01:15:00,14.3,8.7,30.24,East,86,0.0,0.0,78,0.00,,SKC,0.00,VWS V13.01,2013-01-23 07:15:00,
2013-01-23 01:20:00,14.3,8.7,30.24,East,86,0.0,0.0,78,0.00,,SKC,0.00,VWS V13.01,2013-01-23 07:20:00,
2013-01-23 01:25:00,14.2,8.9,30.25,East,86,0.0,0.0,79,0.00,,SKC,0.00,VWS V13.01,2013-01-23 07:25:00,
2013-01-23 01:30:00,14.2,8.9,30.24,East,86,0.0,0.0,79,0.00,,SKC,0.00,VWS V13.01,2013-01-23 07:30:00,
2013-01-23 01:35:00,14.1,8.8,30.24,East,86,0.0,0.0,79,0.00,,SKC,0.00,VWS V13.01,2013-01-23 07:35:00,
2013-01-23 01:40:00,14.1,8.8,30.24,East,86,0.0,0.0,79,0.00,,SKC,0.00,VWS V13.01,2013-01-23 07:40:00,
2013-01-23 01:45:00,14.0,8.7,30.23,East,86,0.0,0.0,79,0.00,,SKC,0.00,VWS V13.01,2013-01-23 07:45:00,
2013-01-23 01:50:00,13.9,8.6,30.24,East,86,0.0,0.0,79,0.00,,SKC,0.00,VWS V13.01,2013-01-23 07:50:00,
2013-01-23 01:55:00,13.8,8.5,30.23,East,86,0.0,0.0,79,0.00,,SKC,0.00,VWS V13.01,2013-01-23 07:55:00,
2013-01-23 02:00:00,13.8,8.5,30.23,East,86,0.0,0.0,79,0.00,,SKC,0.00,VWS V13.01,2013-01-23 08:00:00,
2013-01-23 02:05:00,13.8,8.5,30.24,East,86,0.0,0.0,79,0.00,,SKC,0.00,VWS V13.01,2013-01-23 08:05:00,
2013-01-23 02:10:00,13.7,8.7,30.23,East,86,0.0,0.0,80,0.00,,SKC,0.00,VWS V13.01,2013-01-23 08:10:00,
2013-01-23 02:15:00,13.7,8.7,30.23,East,86,0.0,0.0,80,0.00,,SKC,0.00,VWS V13.01,2013-01-23 08:15:00,
2013-01-23 02:20:00,13.6,8.6,30.24,East,86,0.0,0.0,80,0.00,,SKC,0.00,VWS V13.01,2013-01-23 08:20:00,
2013-01-23 02:25:00,13.6,8.6,30.23,East,86,0.0,0.0,80,0.00,,SKC,0.00,VWS V13.01,2013-01-23 08:25:00,
2013-01-23 02:30:00,13.5,8.5,30.24,East,86,0.0,0.0,80,0.00,,SKC,0.00,VWS V13.01,2013-01-23 08:30:00,
2013-01-23 02:35:00,13.5,8.5,30.23,East,86,0.0,0.0,80,0.00,,SKC,0.00,VWS V13.01,2013-01-23 08:35:00,
2013-01-23 02:40:00,13.5,8.5,30.24,East,86,0.0,0.0,80,0.00,,SKC,0.00,VWS V13.01,2013-01-23 08:40:00,
2013-01-23 02:45:00,13.5,8.5,30.23,East,86,0.0,0.0,80,0.00,,SKC,0.00,VWS V13.01,2013-01-23 08:45:00,
2013-01-23 02:50:00,13.4,8.4,30.23,East,86,0.0,0.0,80,0.00,,SKC,0.00,VWS V13.01,2013-01-23 08:50:00,
2013-01-23 02:55:00,13.4,8.4,30.23,East,86,0.0,0.0,80,0.00,,SKC,0.00,VWS V13.01,2013-01-23 08:55:00,
2013-01-23 03:00:00,13.4,8.7,30.23,East,86,0.0,0.0,81,0.00,,SKC,0.00,VWS V13.01,2013-01-23 09:00:00,
2013-01-23 03:05:00,13.5,8.8,30.23,East,86,0.0,0.0,81,0.00,,SKC,0.00,VWS V13.01,2013-01-23 09:05:00,
2013-01-23 03:10:00,13.5,8.8,30.22,East,86,0.0,0.0,81,0.00,,SKC,0.00,VWS V13.01,2013-01-23 09:10:00,
2013-01-23 03:15:00,13.5,8.8,30.22,East,86,0.0,0.0,81,0.00,,SKC,0.00,VWS V13.01,2013-01-23 09:15:00,
2013-01-23 03:20:00,13.5,8.8,30.23,East,86,0.0,0.0,81,0.00,,SKC,0.00,VWS V13.01,2013-01-23 09:20:00,
2013-01-23 03:25:00,13.5,8.8,30.22,East,86,0.0,0.0,81,0.00,,SKC,0.00,VWS V13.01,2013-01-23 09:25:00,
2013-01-23 03:30:00,13.5,8.8,30.22,East,86,0.0,0.0,81,0.00,,SKC,0.00,VWS V13.01,2013-01-23 09:30:00,
2013-01-23 03:35:00,13.5,8.8,30.22,East,86,0.0,0.0,81,0.00,,SKC,0.00,VWS V13.01,2013-01-23 09:35:00,
2013-01-23 03:40:00,13.5,8.8,30.22,East,86,0.0,0.0,81,0.00,,SKC,0.00,VWS V13.01,2013-01-23 09:40:00,
2013-01-23 03:45:00,13.5,8.8,30.22,East,86,0.0,0.0,81,0.00,,SKC,0.00,VWS V13.01,2013-01-23 09:45:00,
2013-01-23 03:50:00,13.5,8.8,30.22,East,86,0.0,0.0,81,0.00,,SKC,0.00,VWS V13.01,2013-01-23 09:50:00,
2013-01-23 03:55:00,13.5,8.8,30.21,East,86,0.0,0.0,81,0.00,,SKC,0.00,VWS V13.01,2013-01-23 09:55:00,
2013-01-23 04:00:00,13.6,8.9,30.21,East,86,0.0,0.0,81,0.00,,SKC,0.00,VWS V13.01,2013-01-23 10:00:00,
2013-01-23 04:05:00,13.7,9.0,30.21,East,86,0.0,0.0,81,0.00,,SKC,0.00,VWS V13.01,2013-01-23 10:05:00,
2013-01-23 04:10:00,13.7,9.0,30.21,East,86,0.0,0.0,81,0.00,,SKC,0.00,VWS V13.01,2013-01-23 10:10:00,
2013-01-23 04:15:00,13.8,9.1,30.20,East,86,0.0,0.0,81,0.00,,SKC,0.00,VWS V13.01,2013-01-23 10:15:00,
2013-01-23 04:20:00,13.8,9.1,30.20,East,86,0.0,0.0,81,0.00,,SKC,0.00,VWS V13.01,2013-01-23 10:20:00,
2013-01-23 04:25:00,13.9,9.2,30.19,East,86,0.0,0.0,81,0.00,,SKC,0.00,VWS V13.01,2013-01-23 10:25:00,
2013-01-23 04:30:00,13.9,9.2,30.20,East,86,0.0,0.0,81,0.00,,SKC,0.00,VWS V13.01,2013-01-23 10:30:00,
2013-01-23 04:35:00,14.0,11.4,30.19,East,86,0.0,0.0,89,0.00,,SKC,0.00,VWS V13.01,2013-01-23 10:35:00,
2013-01-23 04:40:00,14.0,9.3,30.19,East,86,0.0,0.0,81,0.00,,SKC,0.00,VWS V13.01,2013-01-23 10:40:00,
2013-01-23 04:45:00,14.1,9.4,30.19,East,86,0.0,0.0,81,0.00,,SKC,0.00,VWS V13.01,2013-01-23 10:45:00,
2013-01-23 04:50:00,14.1,9.1,30.20,East,86,0.0,0.0,80,0.00,,SKC,0.00,VWS V13.01,2013-01-23 10:50:00,
2013-01-23 04:55:00,14.1,9.4,30.19,East,86,0.0,0.0,81,0.00,,SKC,0.00,VWS V13.01,2013-01-23 10:55:00,
2013-01-23 05:00:00,14.1,9.4,30.19,East,86,0.0,0.0,81,0.00,,SKC,0.00,VWS V13.01,2013-01-23 11:00:00,
2013-01-23 05:05:00,14.4,9.6,30.19,East,86,0.0,0.0,81,0.00,,SKC,0.00,VWS V13.01,2013-01-23 11:05:00,
2013-01-23 05:10:00,14.5,9.5,30.19,East,86,0.0,0.0,80,0.00,,SKC,0.00,VWS V13.01,2013-01-23 11:10:00,
2013-01-23 05:16:00,14.7,9.7,30.18,East,86,0.0,0.0,80,0.00,,SKC,0.00,VWS V13.01,2013-01-23 11:16:00,
2013-01-23 05:21:00,14.7,9.7,30.18,East,86,0.0,0.0,80,0.00,,SKC,0.00,VWS V13.01,2013-01-23 11:21:00,
2013-01-23 05:26:00,14.7,9.7,30.18,East,86,0.0,0.0,80,0.00,,SKC,0.00,VWS V13.01,2013-01-23 11:26:00,
2013-01-23 05:32:00,14.5,9.2,30.18,East,86,0.0,0.0,79,0.00,,SKC,0.00,VWS V13.01,2013-01-23 11:32:00,
2013-01-23 05:37:00,14.5,9.2,30.18,East,86,0.0,0.0,79,0.00,,SKC,0.00,VWS V13.01,2013-01-23 11:37:00,
2013-01-23 05:42:00,14.4,9.1,30.18,East,86,0.0,0.0,79,0.00,,SKC,0.00,VWS V13.01,2013-01-23 11:42:00,
2013-01-23 05:47:00,14.3,9.3,30.18,East,86,0.0,0.0,80,0.00,,SKC,0.00,VWS V13.01,2013-01-23 11:47:00,
2013-01-23 05:52:00,14.3,9.3,30.19,East,86,0.0,0.0,80,0.00,,SKC,0.00,VWS V13.01,2013-01-23 11:52:00,
2013-01-23 05:57:00,14.3,9.3,30.19,East,86,0.0,0.0,80,0.00,,SKC,0.00,VWS V13.01,2013-01-23 11:57:00,
2013-01-23 06:02:00,14.3,9.3,30.19,East,86,0.0,0.0,80,0.00,,SKC,0.00,VWS V13.01,2013-01-23 12:02:00,
2013-01-23 06:07:00,14.2,9.2,30.19,East,86,0.0,0.0,80,0.00,,SKC,0.00,VWS V13.01,2013-01-23 12:07:00,
2013-01-23 06:13:00,14.2,9.2,30.18,East,86,0.0,0.0,80,0.00,,SKC,0.00,VWS V13.01,2013-01-23 12:13:00,
2013-01-23 06:18:00,14.1,9.1,30.19,East,86,0.0,0.0,80,0.00,,SKC,0.00,VWS V13.01,2013-01-23 12:18:00,
2013-01-23 06:23:00,14.0,8.7,30.19,East,86,0.0,0.0,79,0.00,,SKC,0.00,VWS V13.01,2013-01-23 12:23:00,
2013-01-23 06:28:00,14.0,9.0,30.20,East,86,0.0,0.0,80,0.00,,SKC,0.00,VWS V13.01,2013-01-23 12:28:00,
2013-01-23 06:33:00,14.0,9.0,30.20,East,86,0.0,0.0,80,0.00,,SKC,0.00,VWS V13.01,2013-01-23 12:33:00,
2013-01-23 06:38:00,14.0,9.0,30.20,East,86,0.0,0.0,80,0.00,,SKC,0.00,VWS V13.01,2013-01-23 12:38:00,
2013-01-23 06:43:00,13.9,8.9,30.20,East,86,0.0,0.0,80,0.00,,SKC,0.00,VWS V13.01,2013-01-23 12:43:00,
2013-01-23 06:48:00,13.8,8.8,30.20,East,86,0.0,0.0,80,0.00,,SKC,0.00,VWS V13.01,2013-01-23 12:48:00,
2013-01-23 06:53:00,13.6,8.6,30.20,East,86,0.0,0.0,80,0.00,,SKC,0.00,VWS V13.01,2013-01-23 12:53:00,
2013-01-23 06:58:00,13.5,8.5,30.20,East,86,0.0,0.0,80,0.00,,SKC,0.00,VWS V13.01,2013-01-23 12:58:00,
2013-01-23 07:03:00,13.5,8.8,30.20,East,86,0.0,0.0,81,0.00,,SKC,0.00,VWS V13.01,2013-01-23 13:03:00,
2013-01-23 07:08:00,13.5,8.8,30.20,East,86,0.0,0.0,81,0.00,,SKC,0.00,VWS V13.01,2013-01-23 13:08:00,
2013-01-23 07:13:00,13.5,8.8,30.20,East,86,0.0,0.0,81,0.00,,SKC,0.00,VWS V13.01,2013-01-23 13:13:00,
2013-01-23 07:18:00,13.5,8.8,30.20,East,86,0.0,0.0,81,0.00,,SKC,0.00,VWS V13.01,2013-01-23 13:18:00,
2013-01-23 07:23:00,13.5,8.8,30.20,East,86,0.0,0.0,81,0.00,,SKC,0.00,VWS V13.01,2013-01-23 13:23:00,
2013-01-23 07:28:00,13.5,8.8,30.20,East,86,0.0,0.0,81,0.00,,SKC,0.00,VWS V13.01,2013-01-23 13:28:00,
2013-01-23 07:33:00,13.5,8.8,30.20,East,86,0.0,0.0,81,0.00,,SKC,0.00,VWS V13.01,2013-01-23 13:33:00,
2013-01-23 07:38:00,13.5,8.8,30.20,East,86,0.0,0.0,81,0.00,,SKC,0.00,VWS V13.01,2013-01-23 13:38:00,
2013-01-23 07:43:00,13.5,8.8,30.20,East,86,0.0,0.0,81,0.00,,SKC,0.00,VWS V13.01,2013-01-23 13:43:00,
2013-01-23 07:48:00,13.6,8.9,30.20,East,86,0.0,0.0,81,0.00,,SKC,0.00,VWS V13.01,2013-01-23 13:48:00,
2013-01-23 07:53:00,13.6,8.9,30.20,East,86,0.0,0.0,81,0.00,,SKC,0.00,VWS V13.01,2013-01-23 13:53:00,
2013-01-23 07:58:00,13.7,9.0,30.20,East,86,0.0,0.0,81,0.00,,SKC,0.00,VWS V13.01,2013-01-23 13:58:00,
2013-01-23 08:03:00,13.6,8.9,30.20,East,86,0.0,0.0,81,0.00,,SKC,0.00,VWS V13.01,2013-01-23 14:03:00,
2013-01-23 08:08:00,13.6,8.9,30.20,East,86,0.0,0.0,81,0.00,,SKC,0.00,VWS V13.01,2013-01-23 14:08:00,
2013-01-23 08:13:00,13.4,8.7,30.20,East,86,0.0,0.0,81,0.00,,SKC,0.00,VWS V13.01,2013-01-23 14:13:00,
2013-01-23 08:18:00,13.4,8.9,30.20,East,86,0.0,0.0,82,0.00,,SKC,0.00,VWS V13.01,2013-01-23 14:18:00,
2013-01-23 08:23:00,13.7,9.2,30.20,East,86,0.0,0.0,82,0.00,,SKC,0.00,VWS V13.01,2013-01-23 14:23:00,
2013-01-23 08:28:00,14.1,9.6,30.20,East,86,0.0,0.0,82,0.00,,SKC,0.00,VWS V13.01,2013-01-23 14:28:00,
2013-01-23 08:33:00,14.7,10.2,30.21,East,86,0.0,0.0,82,0.00,,SKC,0.00,VWS V13.01,2013-01-23 14:33:00,
2013-01-23 08:38:00,15.3,11.1,30.21,East,86,0.0,0.0,83,0.00,,SKC,0.00,VWS V13.01,2013-01-23 14:38:00,
2013-01-23 08:43:00,16.1,11.6,30.21,ENE,77,0.0,0.0,82,0.00,,SKC,0.00,VWS V13.01,2013-01-23 14:43:00,
2013-01-23 08:48:00,16.7,12.2,30.22,ENE,74,0.0,0.0,82,0.00,,SKC,0.00,VWS V13.01,2013-01-23 14:48:00,
2013-01-23 08:53:00,17.2,12.4,30.21,ENE,74,0.0,0.0,81,0.00,,SKC,0.00,VWS V13.01,2013-01-23 14:53:00,
2013-01-23 08:58:00,17.7,12.9,30.22,ENE,74,0.0,0.0,81,0.00,,SKC,0.00,VWS V13.01,2013-01-23 14:58:00,
2013-01-23 09:03:00,18.5,13.4,30.22,ENE,74,0.0,0.0,80,0.00,,SKC,0.00,VWS V13.01,2013-01-23 15:03:00,
2013-01-23 09:08:00,19.3,14.1,30.22,ENE,64,0.0,0.0,80,0.00,,SKC,0.00,VWS V13.01,2013-01-23 15:08:00,
2013-01-23 09:13:00,19.8,14.4,30.22,NE,52,0.0,2.0,79,0.00,,SKC,0.00,VWS V13.01,2013-01-23 15:13:00,
2013-01-23 09:18:00,20.3,14.6,30.23,NE,51,0.0,0.0,78,0.00,,SKC,0.00,VWS V13.01,2013-01-23 15:18:00,
2013-01-23 09:23:00,20.8,15.0,30.23,NE,51,0.0,0.0,78,0.00,,SKC,0.00,VWS V13.01,2013-01-23 15:23:00,
2013-01-23 09:28:00,21.5,15.7,30.23,NNE,14,4.0,4.0,78,0.00,,SKC,0.00,VWS V13.01,2013-01-23 15:28:00,
2013-01-23 09:33:00,22.0,15.9,30.23,NNE,12,2.0,2.0,77,0.00,,SKC,0.00,VWS V13.01,2013-01-23 15:33:00,
2013-01-23 09:38:00,22.6,16.5,30.24,North,8,0.0,4.0,77,0.00,,SKC,0.00,VWS V13.01,2013-01-23 15:38:00,
2013-01-23 09:43:00,23.1,16.7,30.25,North,3,0.0,5.0,76,0.00,,SKC,0.00,VWS V13.01,2013-01-23 15:43:00,
2013-01-23 09:48:00,23.2,16.5,30.25,North,358,5.0,7.0,75,0.00,,SKC,0.00,VWS V13.01,2013-01-23 15:48:00,
2013-01-23 09:53:00,23.3,16.2,30.25,North,353,4.0,9.0,74,0.00,,SKC,0.00,VWS V13.01,2013-01-23 15:53:00,
2013-01-23 09:58:00,23.3,16.2,30.25,NE,35,6.0,7.0,74,0.00,,SKC,0.00,VWS V13.01,2013-01-23 15:58:00,
2013-01-23 10:03:00,23.3,15.9,30.25,NNE,21,0.0,3.0,73,0.00,,SKC,0.00,VWS V13.01,2013-01-23 16:03:00,
2013-01-23 10:08:00,23.3,15.9,30.25,NNE,21,4.0,7.0,73,0.00,,SKC,0.00,VWS V13.01,2013-01-23 16:08:00,
2013-01-23 10:13:00,23.3,15.9,30.25,North,8,2.0,6.0,73,0.00,,SKC,0.00,VWS V13.01,2013-01-23 16:13:00,
2013-01-23 10:18:00,23.5,16.1,30.26,North,3,3.0,6.0,73,0.00,,SKC,0.00,VWS V13.01,2013-01-23 16:18:00,
2013-01-23 10:23:00,23.8,16.4,30.26,North,351,7.0,8.0,73,0.00,,SKC,0.00,VWS V13.01,2013-01-23 16:23:00,
2013-01-23 10:28:00,23.9,16.2,30.26,North,350,4.0,7.0,72,0.00,,SKC,0.00,VWS V13.01,2013-01-23 16:28:00,
2013-01-23 10:33:00,24.3,16.6,30.26,North,353,4.0,5.0,72,0.00,,SKC,0.00,VWS V13.01,2013-01-23 16:33:00,
2013-01-23 10:38:00,24.8,17.1,30.26,NNE,24,0.0,2.0,72,0.00,,SKC,0.00,VWS V13.01,2013-01-23 16:38:00,
2013-01-23 10:43:00,25.6,17.2,30.26,North,3,2.0,5.0,70,0.00,,SKC,0.00,VWS V13.01,2013-01-23 16:43:00,
2013-01-23 10:48:00,26.6,18.1,30.26,NNE,30,3.0,8.0,70,0.00,,SKC,0.00,VWS V13.01,2013-01-23 16:48:00,
2013-01-23 10:53:00,27.1,17.6,30.27,NNW,338,0.0,5.0,67,0.00,,SKC,0.00,VWS V13.01,2013-01-23 16:53:00,
2013-01-23 10:58:00,27.5,18.3,30.27,North,8,1.0,9.0,68,0.00,,SKC,0.00,VWS V13.01,2013-01-23 16:58:00,
2013-01-23 11:03:00,27.7,18.5,30.27,NNE,29,8.0,11.0,68,0.00,,SKC,0.00,VWS V13.01,2013-01-23 17:03:00,
2013-01-23 11:08:00,28.3,19.1,30.26,NNE,29,4.0,9.0,68,0.00,,SKC,0.00,VWS V13.01,2013-01-23 17:08:00,
2013-01-23 11:13:00,28.8,19.2,30.27,NNE,27,5.0,7.0,67,0.00,,SKC,0.00,VWS V13.01,2013-01-23 17:13:00,
2013-01-23 11:18:00,28.8,18.5,30.27,NNW,330,2.0,5.0,65,0.00,,SKC,0.00,VWS V13.01,2013-01-23 17:18:00,
2013-01-23 11:23:00,28.9,19.0,30.26,ESE,107,5.0,9.0,66,0.00,,SKC,0.00,VWS V13.01,2013-01-23 17:23:00,
2013-01-23 11:28:00,29.0,19.4,30.26,NNW,341,2.0,5.0,67,0.00,,SKC,0.00,VWS V13.01,2013-01-23 17:28:00,
2013-01-23 11:33:00,29.0,19.1,30.26,North,358,4.0,9.0,66,0.00,,SKC,0.00,VWS V13.01,2013-01-23 17:33:00,
2013-01-23 11:38:00,29.1,19.2,30.27,NNW,347,7.0,9.0,66,0.00,,SKC,0.00,VWS V13.01,2013-01-23 17:38:00,
2013-01-23 11:43:00,29.4,19.5,30.27,NNE,28,3.0,9.0,66,0.00,,SKC,0.00,VWS V13.01,2013-01-23 17:43:00,
2013-01-23 11:48:00,29.6,20.0,30.27,North,358,7.0,8.0,67,0.00,,SKC,0.00,VWS V13.01,2013-01-23 17:48:00,
2013-01-23 11:53:00,29.9,20.3,30.27,NNE,33,3.0,8.0,67,0.00,,SKC,0.00,VWS V13.01,2013-01-23 17:53:00,
2013-01-23 11:58:00,30.1,20.1,30.27,NNE,12,3.0,7.0,66,0.00,,SKC,0.00,VWS V13.01,2013-01-23 17:58:00,
2013-01-23 12:03:00,30.4,20.4,30.27,NNE,14,3.0,3.0,66,0.00,,SKC,0.00,VWS V13.01,2013-01-23 18:03:00,
2013-01-23 12:08:00,31.2,20.8,30.27,NNE,21,5.0,9.0,65,0.00,,SKC,0.00,VWS V13.01,2013-01-23 18:08:00,
2013-01-23 12:13:00,31.1,20.0,30.28,NE,44,8.0,13.0,63,0.00,,SKC,0.00,VWS V13.01,2013-01-23 18:13:00,
2013-01-23 12:18:00,30.9,20.2,30.28,NNE,22,5.0,6.0,64,0.00,,SKC,0.00,VWS V13.01,2013-01-23 18:18:00,
2013-01-23 12:23:00,31.7,20.9,30.27,NNW,341,0.0,1.0,64,0.00,,SKC,0.00,VWS V13.01,2013-01-23 18:23:00,
2013-01-23 12:28:00,32.1,21.3,30.28,NE,38,2.0,4.0,64,0.00,,SKC,0.00,VWS V13.01,2013-01-23 18:28:00,
2013-01-23 12:33:00,32.4,20.5,30.28,NW,307,0.0,10.0,61,0.00,,SKC,0.00,VWS V13.01,2013-01-23 18:33:00,
2013-01-23 12:38:00,32.3,20.4,30.28,North,358,2.0,14.0,61,0.00,,SKC,0.00,VWS V13.01,2013-01-23 18:38:00,
2013-01-23 12:43:00,31.9,20.4,30.28,NNE,20,3.0,13.0,62,0.00,,SKC,0.00,VWS V13.01,2013-01-23 18:43:00,
2013-01-23 12:48:00,32.4,20.9,30.28,NNW,345,1.0,6.0,62,0.00,,SKC,0.00,VWS V13.01,2013-01-23 18:48:00,
2013-01-23 12:54:00,31.9,20.0,30.28,North,358,12.0,12.0,61,0.00,,SKC,0.00,VWS V13.01,2013-01-23 18:54:00,
2013-01-23 12:59:00,32.6,21.4,30.28,NNW,335,1.0,13.0,63,0.00,,SKC,0.00,VWS V13.01,2013-01-23 18:59:00,
2013-01-23 13:04:00,32.8,20.9,30.28,NNW,347,0.0,19.0,61,0.00,,SKC,0.00,VWS V13.01,2013-01-23 19:04:00,
2013-01-23 13:09:00,32.4,19.7,30.28,NW,314,8.0,13.0,59,0.00,,SKC,0.00,VWS V13.01,2013-01-23 19:09:00,
2013-01-23 13:14:00,32.1,20.2,30.28,North,358,0.0,4.0,61,0.00,,SKC,0.00,VWS V13.01,2013-01-23 19:14:00,
2013-01-23 13:19:00,33.3,21.7,30.28,North,8,14.0,17.0,62,0.00,,SKC,0.00,VWS V13.01,2013-01-23 19:19:00,
2013-01-23 13:24:00,33.5,21.1,30.28,North,3,0.0,15.0,60,0.00,,SKC,0.00,VWS V13.01,2013-01-23 19:24:00,
2013-01-23 13:29:00,33.4,21.8,30.28,North,358,4.0,13.0,62,0.00,,SKC,0.00,VWS V13.01,2013-01-23 19:29:00,
2013-01-23 13:34:00,33.1,20.7,30.28,NNW,345,12.0,17.0,60,0.00,,SKC,0.00,VWS V13.01,2013-01-23 19:34:00,
2013-01-23 13:39:00,33.3,21.7,30.28,North,358,0.0,12.0,62,0.00,,SKC,0.00,VWS V13.01,2013-01-23 19:39:00,
2013-01-23 13:44:00,33.7,21.3,30.28,NNE,23,1.0,9.0,60,0.00,,SKC,0.00,VWS V13.01,2013-01-23 19:44:00,
2013-01-23 13:49:00,34.0,20.8,30.28,NNE,17,2.0,15.0,58,0.00,,SKC,0.00,VWS V13.01,2013-01-23 19:49:00,
2013-01-23 13:54:00,34.0,21.2,30.28,NNW,330,2.0,5.0,59,0.00,,SKC,0.00,VWS V13.01,2013-01-23 19:54:00,
2013-01-23 13:59:00,34.3,21.1,30.28,NE,50,1.0,13.0,58,0.00,,SKC,0.00,VWS V13.01,2013-01-23 19:59:00,
2013-01-23 14:04:00,34.8,22.3,30.28,NNE,30,2.0,14.0,60,0.00,,SKC,0.00,VWS V13.01,2013-01-23 20:04:00,
2013-01-23 14:09:00,35.3,22.0,30.28,NNE,29,4.0,12.0,58,0.00,,SKC,0.00,VWS V13.01,2013-01-23 20:09:00,
2013-01-23 14:14:00,35.1,21.4,30.28,North,358,1.0,11.0,57,0.00,,SKC,0.00,VWS V13.01,2013-01-23 20:14:00,
2013-01-23 14:19:00,35.0,21.7,30.28,NNW,347,9.0,14.0,58,0.00,,SKC,0.00,VWS V13.01,2013-01-23 20:19:00,
2013-01-23 14:24:00,35.5,22.2,30.28,NE,38,2.0,21.0,58,0.00,,SKC,0.00,VWS V13.01,2013-01-23 20:24:00,
2013-01-23 14:29:00,35.2,20.7,30.29,North,358,0.0,14.0,55,0.00,,SKC,0.00,VWS V13.01,2013-01-23 20:29:00,
2013-01-23 14:34:00,34.6,20.5,30.29,NW,312,0.0,14.0,56,0.00,,SKC,0.00,VWS V13.01,2013-01-23 20:34:00,
2013-01-23 14:39:00,34.2,21.0,30.29,NE,43,11.0,16.0,58,0.00,,SKC,0.00,VWS V13.01,2013-01-23 20:39:00,
2013-01-23 14:44:00,33.8,20.2,30.29,NE,39,2.0,4.0,57,0.00,,SKC,0.00,VWS V13.01,2013-01-23 20:44:00,
2013-01-23 14:50:00,33.5,21.1,30.30,NNE,23,6.0,13.0,60,0.00,,SKC,0.00,VWS V13.01,2013-01-23 20:50:00,
2013-01-23 14:55:00,34.1,21.7,30.30,NNE,12,0.0,4.0,60,0.00,,SKC,0.00,VWS V13.01,2013-01-23 20:55:00,
2013-01-23 15:00:00,34.7,21.0,30.30,North,352,1.0,14.0,57,0.00,,SKC,0.00,VWS V13.01,2013-01-23 21:00:00,
2013-01-23 15:05:00,34.6,21.0,30.30,NNE,26,11.0,11.0,57,0.00,,SKC,0.00,VWS V13.01,2013-01-23 21:05:00,
2013-01-23 15:10:00,34.4,20.3,30.29,NW,326,1.0,13.0,56,0.00,,SKC,0.00,VWS V13.01,2013-01-23 21:10:00,
2013-01-23 15:15:00,34.2,21.0,30.30,NNW,339,2.0,12.0,58,0.00,,SKC,0.00,VWS V13.01,2013-01-23 21:15:00,
2013-01-23 15:20:00,33.8,20.6,30.29,NNE,25,2.0,10.0,58,0.00,,SKC,0.00,VWS V13.01,2013-01-23 21:20:00,
2013-01-23 15:25:00,33.5,19.9,30.29,NE,43,9.0,17.0,57,0.00,,SKC,0.00,VWS V13.01,2013-01-23 21:25:00,
2013-01-23 15:30:00,33.2,20.4,30.30,NNE,15,0.0,7.0,59,0.00,,SKC,0.00,VWS V13.01,2013-01-23 21:30:00,
2013-01-23 15:35:00,33.6,20.8,30.31,North,8,1.0,4.0,59,0.00,,SKC,0.00,VWS V13.01,2013-01-23 21:35:00,
2013-01-23 15:40:00,33.5,19.9,30.31,NW,322,0.0,15.0,57,0.00,,SKC,0.00,VWS V13.01,2013-01-23 21:40:00,
2013-01-23 15:45:00,33.0,19.9,30.31,NNW,337,1.0,13.0,58,0.00,,SKC,0.00,VWS V13.01,2013-01-23 21:45:00,
2013-01-23 15:50:00,32.8,20.1,30.31,North,3,8.0,12.0,59,0.00,,SKC,0.00,VWS V13.01,2013-01-23 21:50:00,
2013-01-23 15:55:00,32.7,20.0,30.31,NNE,33,10.0,18.0,59,0.00,,SKC,0.00,VWS V13.01,2013-01-23 21:55:00,
2013-01-23 16:01:00,32.0,18.9,30.32,NNE,16,8.0,13.0,58,0.00,,SKC,0.00,VWS V13.01,2013-01-23 22:01:00,
2013-01-23 16:06:00,31.5,18.8,30.32,NNE,33,0.0,12.0,59,0.00,,SKC,0.00,VWS V13.01,2013-01-23 22:06:00,
2013-01-23 16:11:00,31.8,19.9,30.32,NE,41,9.0,9.0,61,0.00,,SKC,0.00,VWS V13.01,2013-01-23 22:11:00,
2013-01-23 16:16:00,31.6,18.9,30.32,NNE,16,14.0,16.0,59,0.00,,SKC,0.00,VWS V13.01,2013-01-23 22:16:00,
2013-01-23 16:21:00,31.4,18.7,30.33,North,3,1.0,3.0,59,0.00,,SKC,0.00,VWS V13.01,2013-01-23 22:21:00,
2013-01-23 16:26:00,31.3,18.2,30.34,NNE,14,0.0,4.0,58,0.00,,SKC,0.00,VWS V13.01,2013-01-23 22:26:00,
2013-01-23 16:31:00,30.8,17.8,30.34,NE,39,11.0,16.0,58,0.00,,SKC,0.00,VWS V13.01,2013-01-23 22:31:00,
2013-01-23 16:37:00,30.5,17.9,30.34,North,354,0.0,2.0,59,0.00,,SKC,0.00,VWS V13.01,2013-01-23 22:37:00,
2013-01-23 16:42:00,30.8,18.2,30.34,North,8,14.0,14.0,59,0.00,,SKC,0.00,VWS V13.01,2013-01-23 22:42:00,
2013-01-23 16:47:00,30.8,18.2,30.34,North,358,1.0,14.0,59,0.00,,SKC,0.00,VWS V13.01,2013-01-23 22:47:00,
2013-01-23 16:52:00,30.5,17.1,30.34,NNE,14,2.0,12.0,57,0.00,,SKC,0.00,VWS V13.01,2013-01-23 22:52:00,
2013-01-23 16:57:00,29.8,16.8,30.34,North,8,5.0,12.0,58,0.00,,SKC,0.00,VWS V13.01,2013-01-23 22:57:00,
2013-01-23 17:02:00,29.1,17.0,30.34,NNE,33,1.0,2.0,60,0.00,,SKC,0.00,VWS V13.01,2013-01-23 23:02:00,
2013-01-23 17:07:00,28.7,17.0,30.34,NE,35,2.0,6.0,61,0.00,,SKC,0.00,VWS V13.01,2013-01-23 23:07:00,
2013-01-23 17:12:00,28.3,16.6,30.34,ENE,59,10.0,18.0,61,0.00,,SKC,0.00,VWS V13.01,2013-01-23 23:12:00,
2013-01-23 17:17:00,27.9,16.6,30.35,NNE,23,9.0,13.0,62,0.00,,SKC,0.00,VWS V13.01,2013-01-23 23:17:00,
2013-01-23 17:22:00,27.6,16.3,30.36,NNE,16,6.0,13.0,62,0.00,,SKC,0.00,VWS V13.01,2013-01-23 23:22:00,
2013-01-23 17:27:00,27.2,15.9,30.36,NE,34,1.0,12.0,62,0.00,,SKC,0.00,VWS V13.01,2013-01-23 23:27:00,
2013-01-23 17:32:00,26.7,15.4,30.36,NE,44,7.0,19.0,62,0.00,,SKC,0.00,VWS V13.01,2013-01-23 23:32:00,
2013-01-23 17:37:00,26.3,15.4,30.36,NE,34,2.0,10.0,63,0.00,,SKC,0.00,VWS V13.01,2013-01-23 23:37:00,
2013-01-23 17:42:00,26.1,15.6,30.36,NNE,20,0.0,2.0,64,0.00,,SKC,0.00,VWS V13.01,2013-01-23 23:42:00,
2013-01-23 17:47:00,25.8,15.3,30.36,NNE,25,1.0,2.0,64,0.00,,SKC,0.00,VWS V13.01,2013-01-23 23:47:00,
2013-01-23 17:52:00,25.6,15.1,30.37,NNE,20,14.0,16.0,64,0.00,,SKC,0.00,VWS V13.01,2013-01-23 23:52:00,
2013-01-23 17:57:00,25.2,14.4,30.38,NNE,20,7.0,14.0,63,0.00,,SKC,0.00,VWS V13.01,2013-01-23 23:57:00,
2013-01-23 18:02:00,24.9,14.5,30.38,NNE,32,1.0,19.0,64,0.00,,SKC,0.00,VWS V13.01,2013-01-24 00:02:00,
2013-01-23 18:07:00,24.8,14.7,30.38,NNE,18,1.0,13.0,65,0.00,,SKC,0.00,VWS V13.01,2013-01-24 00:07:00,
2013-01-23 18:12:00,24.5,14.4,30.38,NNE,23,1.0,14.0,65,0.00,,SKC,0.00,VWS V13.01,2013-01-24 00:12:00,
2013-01-23 18:17:00,24.3,14.6,30.39,North,8,9.0,11.0,66,0.00,,SKC,0.00,VWS V13.01,2013-01-24 00:17:00,
2013-01-23 18:22:00,24.1,14.4,30.38,NNE,33,1.0,4.0,66,0.00,,SKC,0.00,VWS V13.01,2013-01-24 00:22:00,
2013-01-23 18:27:00,23.9,14.2,30.39,NNE,27,1.0,10.0,66,0.00,,SKC,0.00,VWS V13.01,2013-01-24 00:27:00,
2013-01-23 18:32:00,23.6,14.3,30.40,NE,36,3.0,14.0,67,0.00,,SKC,0.00,VWS V13.01,2013-01-24 00:32:00,
2013-01-23 18:37:00,23.5,14.2,30.40,NNE,24,5.0,12.0,67,0.00,,SKC,0.00,VWS V13.01,2013-01-24 00:37:00,
2013-01-23 18:42:00,23.3,14.0,30.40,NNE,20,1.0,5.0,67,0.00,,SKC,0.00,VWS V13.01,2013-01-24 00:42:00,
2013-01-23 18:47:00,23.2,13.9,30.40,North,353,5.0,13.0,67,0.00,,SKC,0.00,VWS V13.01,2013-01-24 00:47:00,
2013-01-23 18:52:00,23.0,14.0,30.40,NNE,14,0.0,8.0,68,0.00,,SKC,0.00,VWS V13.01,2013-01-24 00:52:00,
2013-01-23 18:57:00,22.9,13.9,30.40,NNW,332,0.0,12.0,68,0.00,,SKC,0.00,VWS V13.01,2013-01-24 00:57:00,
2013-01-23 19:02:00,22.7,13.7,30.41,NNE,14,1.0,2.0,68,0.00,,SKC,0.00,VWS V13.01,2013-01-24 01:02:00,
2013-01-23 19:07:00,22.5,13.6,30.41,NNE,12,8.0,12.0,68,0.00,,SKC,0.00,VWS V13.01,2013-01-24 01:07:00,
2013-01-23 19:12:00,22.2,13.3,30.42,NNE,18,10.0,13.0,68,0.00,,SKC,0.00,VWS V13.01,2013-01-24 01:12:00,
2013-01-23 19:17:00,22.1,12.8,30.42,NE,34,10.0,10.0,67,0.00,,SKC,0.00,VWS V13.01,2013-01-24 01:17:00,
2013-01-23 19:22:00,21.8,12.2,30.42,NNE,21,9.0,13.0,66,0.00,,SKC,0.00,VWS V13.01,2013-01-24 01:22:00,
2013-01-23 19:27:00,21.6,12.0,30.42,NE,35,9.0,11.0,66,0.00,,SKC,0.00,VWS V13.01,2013-01-24 01:27:00,
2013-01-23 19:32:00,21.5,11.6,30.42,NE,37,10.0,10.0,65,0.00,,SKC,0.00,VWS V13.01,2013-01-24 01:32:00,
2013-01-23 19:37:00,21.2,11.3,30.43,NNE,32,13.0,15.0,65,0.00,,SKC,0.00,VWS V13.01,2013-01-24 01:37:00,
2013-01-23 19:42:00,20.9,11.3,30.43,NNE,19,7.0,17.0,66,0.00,,SKC,0.00,VWS V13.01,2013-01-24 01:42:00,
2013-01-23 19:47:00,20.6,10.7,30.43,NNE,27,2.0,15.0,65,0.00,,SKC,0.00,VWS V13.01,2013-01-24 01:47:00,
2013-01-23 19:52:00,20.3,10.4,30.43,NNE,30,1.0,16.0,65,0.00,,SKC,0.00,VWS V13.01,2013-01-24 01:52:00,
2013-01-23 19:57:00,20.1,9.9,30.43,NNE,16,8.0,17.0,64,0.00,,SKC,0.00,VWS V13.01,2013-01-24 01:57:00,
2013-01-23 20:02:00,19.9,9.7,30.43,NNE,27,12.0,12.0,64,0.00,,SKC,0.00,VWS V13.01,2013-01-24 02:02:00,
2013-01-23 20:07:00,19.7,9.5,30.43,NNE,22,11.0,17.0,64,0.00,,SKC,0.00,VWS V13.01,2013-01-24 02:07:00,
2013-01-23 20:12:00,19.5,9.7,30.44,NNW,347,10.0,12.0,65,0.00,,SKC,0.00,VWS V13.01,2013-01-24 02:12:00,
2013-01-23 20:18:00,19.2,9.0,30.44,NE,42,10.0,12.0,64,0.00,,SKC,0.00,VWS V13.01,2013-01-24 02:18:00,
2013-01-23 20:23:00,19.1,8.9,30.44,North,3,6.0,16.0,64,0.00,,SKC,0.00,VWS V13.01,2013-01-24 02:23:00,
2013-01-23 20:28:00,18.9,9.1,30.45,NNE,20,9.0,13.0,65,0.00,,SKC,0.00,VWS V13.01,2013-01-24 02:28:00,
2013-01-23 20:33:00,18.9,9.1,30.45,NNE,33,9.0,12.0,65,0.00,,SKC,0.00,VWS V13.01,2013-01-24 02:33:00,
2013-01-23 20:39:00,18.7,8.9,30.45,NE,37,1.0,15.0,65,0.00,,SKC,0.00,VWS V13.01,2013-01-24 02:39:00,
2013-01-23 20:44:00,18.5,8.7,30.45,NE,34,0.0,9.0,65,0.00,,SKC,0.00,VWS V13.01,2013-01-24 02:44:00,
2013-01-23 20:49:00,18.3,8.5,30.45,NE,36,1.0,12.0,65,0.00,,SKC,0.00,VWS V13.01,2013-01-24 02:49:00,
2013-01-23 20:54:00,18.1,8.3,30.45,North,3,0.0,10.0,65,0.00,,SKC,0.00,VWS V13.01,2013-01-24 02:54:00,
2013-01-23 20:59:00,17.9,7.8,30.44,NNE,32,1.0,12.0,64,0.00,,SKC,0.00,VWS V13.01,2013-01-24 02:59:00,
2013-01-23 21:04:00,17.7,7.6,30.45,NNW,329,10.0,10.0,64,0.00,,SKC,0.00,VWS V13.01,2013-01-24 03:04:00,
2013-01-23 21:09:00,17.5,7.4,30.45,NNE,27,0.0,8.0,64,0.00,,SKC,0.00,VWS V13.01,2013-01-24 03:09:00,
2013-01-23 21:14:00,17.3,7.6,30.46,NE,37,0.0,2.0,65,0.00,,SKC,0.00,VWS V13.01,2013-01-24 03:14:00,
2013-01-23 21:19:00,17.2,7.5,30.47,North,8,0.0,1.0,65,0.00,,SKC,0.00,VWS V13.01,2013-01-24 03:19:00,
2013-01-23 21:24:00,17.1,7.4,30.47,NNW,347,0.0,1.0,65,0.00,,SKC,0.00,VWS V13.01,2013-01-24 03:24:00,
2013-01-23 21:29:00,16.9,7.2,30.46,North,8,0.0,9.0,65,0.00,,SKC,0.00,VWS V13.01,2013-01-24 03:29:00,
2013-01-23 21:34:00,16.8,7.1,30.46,NNW,343,0.0,1.0,65,0.00,,SKC,0.00,VWS V13.01,2013-01-24 03:34:00,
2013-01-23 21:39:00,16.7,7.3,30.47,NE,36,2.0,2.0,66,0.00,,SKC,0.00,VWS V13.01,2013-01-24 03:39:00,
2013-01-23 21:44:00,16.6,7.2,30.46,North,358,1.0,1.0,66,0.00,,SKC,0.00,VWS V13.01,2013-01-24 03:44:00,
2013-01-23 21:49:00,16.4,7.0,30.46,NNE,16,0.0,1.0,66,0.00,,SKC,0.00,VWS V13.01,2013-01-24 03:49:00,
2013-01-23 21:54:00,16.3,6.9,30.47,NNE,27,0.0,11.0,66,0.00,,SKC,0.00,VWS V13.01,2013-01-24 03:54:00,
2013-01-23 21:59:00,16.2,7.2,30.47,North,358,0.0,0.0,67,0.00,,SKC,0.00,VWS V13.01,2013-01-24 03:59:00,
2013-01-23 22:04:00,16.1,7.1,30.48,NNE,33,1.0,10.0,67,0.00,,SKC,0.00,VWS V13.01,2013-01-24 04:04:00,
2013-01-23 22:09:00,15.9,6.9,30.49,NNE,29,1.0,1.0,67,0.00,,SKC,0.00,VWS V13.01,2013-01-24 04:09:00,
2013-01-23 22:14:00,15.9,6.6,30.49,NNE,29,6.0,11.0,66,0.00,,SKC,0.00,VWS V13.01,2013-01-24 04:14:00,
2013-01-23 22:19:00,15.8,5.8,30.49,North,8,4.0,10.0,64,0.00,,SKC,0.00,VWS V13.01,2013-01-24 04:19:00,
2013-01-23 22:24:00,15.7,5.4,30.49,NE,35,0.0,11.0,63,0.00,,SKC,0.00,VWS V13.01,2013-01-24 04:24:00,
2013-01-23 22:29:00,15.6,5.3,30.49,NE,43,0.0,3.0,63,0.00,,SKC,0.00,VWS V13.01,2013-01-24 04:29:00,
2013-01-23 22:34:00,15.4,5.1,30.50,NE,36,0.0,10.0,63,0.00,,SKC,0.00,VWS V13.01,2013-01-24 04:34:00,
2013-01-23 22:39:00,15.3,5.0,30.49,NNE,18,6.0,9.0,63,0.00,,SKC,0.00,VWS V13.01,2013-01-24 04:39:00,
2013-01-23 22:44:00,15.0,4.3,30.49,NE,34,9.0,17.0,62,0.00,,SKC,0.00,VWS V13.01,2013-01-24 04:44:00,
2013-01-23 22:49:00,14.8,4.5,30.50,NE,41,10.0,12.0,63,0.00,,SKC,0.00,VWS V13.01,2013-01-24 04:49:00,
2013-01-23 22:54:00,14.6,4.7,30.49,NNE,31,1.0,8.0,64,0.00,,SKC,0.00,VWS V13.01,2013-01-24 04:54:00,
2013-01-23 22:59:00,14.4,4.5,30.50,NNE,27,1.0,11.0,64,0.00,,SKC,0.00,VWS V13.01,2013-01-24 04:59:00,
2013-01-23 23:01:00,14.3,4.4,30.50,NE,34,1.0,14.0,64,0.00,,SKC,0.00,VWS V13.01,2013-01-24 05:01:00,
2013-01-23 23:04:00,14.2,4.6,30.50,NE,43,1.0,10.0,65,0.00,,SKC,0.00,VWS V13.01,2013-01-24 05:04:00,
2013-01-23 23:06:00,14.2,4.6,30.50,NNE,33,0.0,2.0,65,0.00,,SKC,0.00,VWS V13.01,2013-01-24 05:06:00,
2013-01-23 23:08:00,14.1,4.8,30.51,NE,38,0.0,2.0,66,0.00,,SKC,0.00,VWS V13.01,2013-01-24 05:08:00,
2013-01-23 23:13:00,13.9,4.7,30.51,NE,34,0.0,10.0,66,0.00,,SKC,0.00,VWS V13.01,2013-01-24 05:13:00,
2013-01-23 23:18:00,13.8,4.6,30.52,NNE,20,4.0,10.0,66,0.00,,SKC,0.00,VWS V13.01,2013-01-24 05:18:00,
2013-01-23 23:23:00,13.6,4.4,30.52,NE,35,0.0,3.0,66,0.00,,SKC,0.00,VWS V13.01,2013-01-24 05:23:00,
2013-01-23 23:28:00,13.4,3.5,30.52,NE,52,1.0,10.0,64,0.00,,SKC,0.00,VWS V13.01,2013-01-24 05:28:00,
2013-01-23 23:33:00,13.1,3.2,30.52,NE,46,0.0,2.0,64,0.00,,SKC,0.00,VWS V13.01,2013-01-24 05:33:00,
2013-01-23 23:38:00,12.9,3.0,30.52,NE,52,1.0,1.0,64,0.00,,SKC,0.00,VWS V13.01,2013-01-24 05:38:00,
2013-01-23 23:43:00,12.7,2.5,30.52,NE,34,10.0,13.0,63,0.00,,SKC,0.00,VWS V13.01,2013-01-24 05:43:00,
2013-01-23 23:48:00,12.4,1.9,30.52,NNE,22,9.0,13.0,62,0.00,,SKC,0.00,VWS V13.01,2013-01-24 05:48:00,
2013-01-23 23:54:00,12.1,1.6,30.52,NNE,29,11.0,16.0,62,0.00,,SKC,0.00,VWS V13.01,2013-01-24 05:54:00,